"read_dt","SO2 (ppb)","flags","PMT voltage (V)","lamp voltage (V)","lamp intensity (Hz)","internal temp (C)","react chamber temp (C)","sample flow (l/min)","pres (mmHg)","SO2 bkg (ppb)","SO2 coefficient"
2017-04-10 00:00:00,1618E-3,5C000400,-0724,0834,12185,022.1,045.3,0.234,761.5,01.16,0.508
2017-04-10 00:01:00,1590E-3,5C000400,-0724,0833,12036,022.1,045.3,0.234,761.6,01.16,0.508
2017-04-10 00:02:00,1762E-3,5C000400,-0724,0834,12160,022.1,045.3,0.234,761.5,01.16,0.508
2017-04-10 00:03:00,1585E-3,5C000400,-0724,0834,11984,022.1,045.3,0.234,761.6,01.16,0.508
2017-04-10 00:04:00,1595E-3,5C000400,-0724,0833,11949,022.1,045.3,0.234,761.6,01.16,0.508
2017-04-10 00:05:00,1682E-3,5C000400,-0724,0834,12003,022.1,045.3,0.234,761.6,01.16,0.508
2017-04-10 00:06:00,1798E-3,5C000400,-0724,0834,12108,022.2,045.3,0.234,761.6,01.16,0.508
2017-04-10 00:07:00,1712E-3,5C000400,-0724,0833,12087,022.2,045.3,0.234,761.6,01.16,0.508
2017-04-10 00:08:00,1599E-3,5C000400,-0724,0833,12216,022.2,045.3,0.234,761.6,01.16,0.508
2017-04-10 00:09:00,1727E-3,5C000400,-0724,0834,12184,022.2,045.3,0.233,761.6,01.16,0.508
2017-04-10 00:10:00,1508E-3,5C000400,-0724,0834,12023,022.2,045.3,0.233,761.6,01.16,0.508
2017-04-10 00:11:00,1649E-3,5C000400,-0724,0834,12100,022.2,045.3,0.234,761.7,01.16,0.508
2017-04-10 00:12:00,1696E-3,5C000400,-0724,0833,12041,022.2,045.3,0.234,761.6,01.16,0.508
2017-04-10 00:13:00,1633E-3,5C000400,-0724,0834,11939,022.2,045.3,0.234,761.7,01.16,0.508
2017-04-10 00:14:00,1776E-3,5C000400,-0724,0833,12124,022.2,045.3,0.234,761.7,01.16,0.508
2017-04-10 00:15:00,1650E-3,5C000400,-0724,0834,12065,022.3,045.3,0.234,761.6,01.16,0.508
2017-04-10 00:16:00,1567E-3,5C000400,-0724,0834,12032,022.2,045.3,0.234,761.7,01.16,0.508
2017-04-10 00:17:00,1689E-3,5C000400,-0724,0834,12119,022.3,045.3,0.234,761.7,01.16,0.508
2017-04-10 00:18:00,1595E-3,5C000400,-0724,0834,12074,022.3,045.3,0.234,761.7,01.16,0.508
2017-04-10 00:19:00,1634E-3,5C000400,-0724,0834,12138,022.3,045.3,0.234,761.6,01.16,0.508
2017-04-10 00:20:00,1580E-3,5C000400,-0724,0833,11951,022.3,045.3,0.233,761.6,01.16,0.508
2017-04-10 00:21:00,1609E-3,5C000400,-0724,0834,11985,022.3,045.3,0.233,761.6,01.16,0.508
2017-04-10 00:22:00,1652E-3,5C000400,-0724,0833,12006,022.3,045.3,0.233,761.6,01.16,0.508
2017-04-10 00:23:00,1764E-3,5C000400,-0724,0833,12097,022.3,045.3,0.234,761.6,01.16,0.508
2017-04-10 00:24:00,1568E-3,5C000400,-0724,0834,12018,022.3,045.3,0.234,761.6,01.16,0.508
2017-04-10 00:25:00,1743E-3,5C000400,-0724,0834,12096,022.3,045.3,0.234,761.6,01.16,0.508
2017-04-10 00:26:00,1805E-3,5C000400,-0724,0834,12016,022.3,045.3,0.234,761.7,01.16,0.508
2017-04-10 00:27:00,1761E-3,5C000400,-0724,0834,12093,022.4,045.3,0.233,761.6,01.16,0.508
2017-04-10 00:28:00,1690E-3,5C000400,-0724,0833,12093,022.4,045.3,0.233,761.6,01.16,0.508
2017-04-10 00:29:00,1734E-3,5C000400,-0724,0834,12092,022.4,045.3,0.233,761.5,01.16,0.508
2017-04-10 00:30:00,1748E-3,5C000400,-0724,0834,12112,022.4,045.3,0.233,761.6,01.16,0.508
2017-04-10 00:31:00,1644E-3,5C000400,-0724,0833,12211,022.4,045.3,0.234,761.6,01.16,0.508
2017-04-10 00:32:00,1660E-3,5C000400,-0724,0833,11974,022.4,045.3,0.234,761.6,01.16,0.508
2017-04-10 00:33:00,1850E-3,5C000400,-0724,0834,12072,022.4,045.3,0.233,761.7,01.16,0.508
2017-04-10 00:34:00,1609E-3,5C000400,-0724,0834,12155,022.4,045.3,0.233,761.7,01.16,0.508
2017-04-10 00:35:00,1547E-3,5C000400,-0724,0833,12029,022.4,045.3,0.233,761.7,01.16,0.508
2017-04-10 00:36:00,1673E-3,5C000400,-0724,0834,12153,022.4,045.3,0.233,761.8,01.16,0.508
2017-04-10 00:37:00,1607E-3,5C000400,-0724,0834,12105,022.4,045.3,0.233,761.8,01.16,0.508
2017-04-10 00:38:00,1552E-3,5C000400,-0724,0834,12062,022.4,045.3,0.234,761.8,01.16,0.508
2017-04-10 00:39:00,1578E-3,5C000400,-0724,0835,12040,022.4,045.3,0.234,761.7,01.16,0.508
2017-04-10 00:40:00,1553E-3,5C000400,-0724,0834,12066,022.4,045.3,0.233,761.7,01.16,0.508
2017-04-10 00:41:00,1788E-3,5C000400,-0724,0834,12192,022.5,045.3,0.233,761.7,01.16,0.508
2017-04-10 00:42:00,1703E-3,5C000400,-0724,0834,12133,022.5,045.3,0.233,761.7,01.16,0.508
2017-04-10 00:43:00,1593E-3,5C000400,-0724,0834,11996,022.5,045.3,0.233,761.7,01.16,0.508
2017-04-10 00:44:00,1631E-3,5C000400,-0724,0833,12118,022.5,045.4,0.233,761.7,01.16,0.508
2017-04-10 00:45:00,1709E-3,5C000400,-0724,0834,12031,022.5,045.3,0.233,761.6,01.16,0.508
2017-04-10 00:46:00,1567E-3,5C000400,-0724,0833,12177,022.5,045.3,0.233,761.7,01.16,0.508
2017-04-10 00:47:00,1602E-3,5C000400,-0724,0833,12104,022.5,045.3,0.233,761.9,01.16,0.508
2017-04-10 00:48:00,1592E-3,5C000400,-0724,0834,12237,022.5,045.3,0.233,761.9,01.16,0.508
2017-04-10 00:49:00,1687E-3,5C000400,-0724,0833,11990,022.5,045.3,0.233,761.9,01.16,0.508
2017-04-10 00:50:00,1590E-3,5C000400,-0724,0833,12200,022.5,045.3,0.233,761.8,01.16,0.508
2017-04-10 00:51:00,1687E-3,5C000400,-0724,0834,12147,022.5,045.3,0.233,761.8,01.16,0.508
2017-04-10 00:52:00,1621E-3,5C000400,-0724,0833,12100,022.5,045.3,0.233,761.7,01.16,0.508
2017-04-10 00:53:00,1633E-3,5C000400,-0724,0833,12054,022.5,045.3,0.233,761.7,01.16,0.508
2017-04-10 00:54:00,1734E-3,5C000400,-0724,0834,12020,022.5,045.3,0.233,761.6,01.16,0.508
2017-04-10 00:55:00,1671E-3,5C000400,-0724,0834,12126,022.5,045.3,0.234,761.6,01.16,0.508
2017-04-10 00:56:00,1701E-3,5C000400,-0724,0834,12017,022.5,045.3,0.234,761.6,01.16,0.508
2017-04-10 00:57:00,1656E-3,5C000400,-0724,0833,12099,022.5,045.3,0.234,761.5,01.16,0.508
2017-04-10 00:58:00,1580E-3,5C000400,-0724,0833,12009,022.5,045.3,0.233,761.6,01.16,0.508
2017-04-10 00:59:00,1595E-3,5C000400,-0724,0834,12086,022.5,045.3,0.233,761.6,01.16,0.508
2017-04-10 01:00:00,1602E-3,5C000400,-0724,0834,12033,022.5,045.3,0.233,761.4,01.16,0.508
2017-04-10 01:01:00,1658E-3,5C000400,-0724,0834,12060,022.4,045.3,0.233,761.4,01.16,0.508
2017-04-10 01:02:00,1697E-3,5C000400,-0724,0833,12071,022.4,045.3,0.233,761.4,01.16,0.508
2017-04-10 01:03:00,1589E-3,5C000400,-0724,0834,12050,022.4,045.3,0.233,761.4,01.16,0.508
2017-04-10 01:04:00,1600E-3,5C000400,-0724,0834,12180,022.4,045.3,0.233,761.3,01.16,0.508
2017-04-10 01:05:00,1744E-3,5C000400,-0724,0833,12046,022.3,045.3,0.233,761.4,01.16,0.508
2017-04-10 01:06:00,1507E-3,5C000400,-0724,0834,12133,022.3,045.3,0.234,761.5,01.16,0.508
2017-04-10 01:07:00,1665E-3,5C000400,-0724,0835,12199,022.3,045.3,0.233,761.5,01.16,0.508
2017-04-10 01:08:00,1574E-3,5C000400,-0724,0834,12114,022.2,045.3,0.233,761.5,01.16,0.508
2017-04-10 01:09:00,1712E-3,5C000400,-0724,0834,12158,022.2,045.3,0.233,761.6,01.16,0.508
2017-04-10 01:10:00,1684E-3,5C000400,-0724,0834,12222,022.2,045.3,0.234,761.5,01.16,0.508
2017-04-10 01:11:00,1734E-3,5C000400,-0724,0834,12122,022.1,045.3,0.233,761.5,01.16,0.508
2017-04-10 01:12:00,1637E-3,5C000400,-0724,0834,11950,022.1,045.3,0.233,761.5,01.16,0.508
2017-04-10 01:13:00,1667E-3,5C000400,-0724,0834,12043,022.1,045.3,0.234,761.4,01.16,0.508
2017-04-10 01:14:00,1628E-3,5C000400,-0724,0834,12180,022.0,045.3,0.233,761.5,01.16,0.508
2017-04-10 01:15:00,1641E-3,5C000400,-0724,0834,12061,022.0,045.3,0.234,761.4,01.16,0.508
2017-04-10 01:16:00,1661E-3,5C000400,-0724,0833,12196,022.0,045.3,0.234,761.5,01.16,0.508
2017-04-10 01:17:00,1658E-3,5C000400,-0724,0834,12129,022.0,045.3,0.234,761.5,01.16,0.508
2017-04-10 01:18:00,1628E-3,5C000400,-0724,0834,12108,021.9,045.3,0.233,761.6,01.16,0.508
2017-04-10 01:19:00,1600E-3,5C000400,-0724,0834,12095,021.9,045.3,0.234,761.6,01.16,0.508
2017-04-10 01:20:00,1679E-3,5C000400,-0724,0834,11989,021.9,045.3,0.234,761.5,01.16,0.508
2017-04-10 01:21:00,1656E-3,5C000400,-0724,0834,12184,021.8,045.3,0.234,761.6,01.16,0.508
2017-04-10 01:22:00,1632E-3,5C000400,-0724,0833,12122,021.8,045.3,0.234,761.5,01.16,0.508
2017-04-10 01:23:00,1673E-3,5C000400,-0724,0834,11964,021.8,045.3,0.234,761.7,01.16,0.508
2017-04-10 01:24:00,1550E-3,5C000400,-0724,0833,12208,021.7,045.3,0.234,761.6,01.16,0.508
2017-04-10 01:25:00,1710E-3,5C000400,-0724,0833,12082,021.7,045.3,0.234,761.7,01.16,0.508
2017-04-10 01:26:00,1584E-3,5C000400,-0724,0834,12119,021.7,045.3,0.234,761.6,01.16,0.508
2017-04-10 01:27:00,1743E-3,5C000400,-0724,0833,11940,021.6,045.3,0.234,761.7,01.16,0.508
2017-04-10 01:28:00,1726E-3,5C000400,-0724,0833,11903,021.6,045.3,0.234,761.7,01.16,0.508
2017-04-10 01:29:00,1717E-3,5C000400,-0724,0834,12023,021.6,045.3,0.235,761.6,01.16,0.508
2017-04-10 01:30:00,1570E-3,5C000400,-0724,0833,12004,021.5,045.3,0.235,761.6,01.16,0.508
2017-04-10 01:31:00,1607E-3,5C000400,-0724,0834,12091,021.5,045.3,0.235,761.6,01.16,0.508
2017-04-10 01:32:00,1614E-3,5C000400,-0724,0834,11996,021.5,045.3,0.234,761.6,01.16,0.508
2017-04-10 01:33:00,1640E-3,5C000400,-0724,0834,12090,021.5,045.3,0.234,761.6,01.16,0.508
2017-04-10 01:34:00,1701E-3,5C000400,-0724,0834,12095,021.4,045.3,0.235,761.6,01.16,0.508
2017-04-10 01:35:00,1538E-3,5C000400,-0724,0833,12038,021.4,045.3,0.235,761.7,01.16,0.508
2017-04-10 01:36:00,1695E-3,5C000400,-0724,0833,12138,021.4,045.3,0.235,761.7,01.16,0.508
2017-04-10 01:37:00,1674E-3,5C000400,-0724,0834,12237,021.4,045.3,0.235,761.6,01.16,0.508
2017-04-10 01:38:00,1589E-3,5C000400,-0724,0833,12192,021.3,045.3,0.235,761.7,01.16,0.508
2017-04-10 01:39:00,1656E-3,5C000400,-0724,0834,12189,021.3,045.3,0.235,761.7,01.16,0.508
2017-04-10 01:40:00,1658E-3,5C000400,-0724,0834,12168,021.3,045.2,0.235,761.7,01.16,0.508
2017-04-10 01:41:00,1647E-3,5C000400,-0724,0833,12112,021.3,045.3,0.235,761.7,01.16,0.508
2017-04-10 01:42:00,1538E-3,5C000400,-0724,0833,12023,021.3,045.3,0.235,761.7,01.16,0.508
2017-04-10 01:43:00,1557E-3,5C000400,-0724,0834,12191,021.3,045.3,0.235,761.7,01.16,0.508
2017-04-10 01:44:00,1759E-3,5C000400,-0724,0834,12233,021.3,045.3,0.235,761.7,01.16,0.508
2017-04-10 01:45:00,1655E-3,5C000400,-0724,0833,12130,021.3,045.3,0.235,761.7,01.16,0.508
2017-04-10 01:46:00,1599E-3,5C000400,-0724,0833,12124,021.3,045.3,0.235,761.6,01.16,0.508
2017-04-10 01:47:00,1606E-3,5C000400,-0724,0834,11956,021.3,045.3,0.235,761.7,01.16,0.508
2017-04-10 01:48:00,1689E-3,5C000400,-0724,0833,12174,021.3,045.3,0.235,761.7,01.16,0.508
2017-04-10 01:49:00,1706E-3,5C000400,-0724,0834,12083,021.3,045.3,0.235,761.7,01.16,0.508
2017-04-10 01:50:00,1496E-3,5C000400,-0724,0833,12049,021.3,045.3,0.235,761.7,01.16,0.508
2017-04-10 01:51:00,1644E-3,5C000400,-0724,0833,12068,021.3,045.3,0.235,761.7,01.16,0.508
2017-04-10 01:52:00,1556E-3,5C000400,-0724,0834,12106,021.3,045.3,0.235,761.7,01.16,0.508
2017-04-10 01:53:00,1648E-3,5C000400,-0724,0833,12007,021.3,045.3,0.235,761.7,01.16,0.508
2017-04-10 01:54:00,1518E-3,5C000400,-0724,0834,12269,021.3,045.3,0.235,761.7,01.16,0.508
2017-04-10 01:55:00,1672E-3,5C000400,-0724,0834,12070,021.3,045.3,0.236,761.7,01.16,0.508
2017-04-10 01:56:00,1563E-3,5C000400,-0724,0833,12051,021.3,045.3,0.236,761.7,01.16,0.508
2017-04-10 01:57:00,1688E-3,5C000400,-0724,0833,11989,021.3,045.3,0.236,761.6,01.16,0.508
2017-04-10 01:58:00,1655E-3,5C000400,-0724,0834,12178,021.3,045.3,0.236,761.7,01.16,0.508
2017-04-10 01:59:00,1690E-3,5C000400,-0724,0834,11983,021.4,045.3,0.235,761.7,01.16,0.508
2017-04-10 02:00:00,1624E-3,5C000400,-0724,0834,12010,021.4,045.3,0.235,761.7,01.16,0.508
2017-04-10 02:01:00,1865E-3,5C000400,-0724,0834,12235,021.4,045.3,0.235,761.7,01.16,0.508
2017-04-10 02:02:00,1752E-3,5C000400,-0724,0835,12181,021.4,045.3,0.235,761.7,01.16,0.508
2017-04-10 02:03:00,1654E-3,5C000400,-0724,0833,11973,021.5,045.3,0.235,761.7,01.16,0.508
2017-04-10 02:04:00,1656E-3,5C000400,-0724,0834,12101,021.5,045.3,0.235,761.7,01.16,0.508
2017-04-10 02:05:00,1696E-3,5C000400,-0724,0833,12162,021.5,045.3,0.235,761.7,01.16,0.508
2017-04-10 02:06:00,1620E-3,5C000400,-0724,0833,12038,021.5,045.3,0.235,761.7,01.16,0.508
2017-04-10 02:07:00,1668E-3,5C000400,-0724,0834,12172,021.5,045.3,0.235,761.7,01.16,0.508
2017-04-10 02:08:00,1637E-3,5C000400,-0724,0834,12159,021.6,045.3,0.235,761.7,01.16,0.508
2017-04-10 02:09:00,1630E-3,5C000400,-0724,0834,12130,021.6,045.3,0.235,761.7,01.16,0.508
2017-04-10 02:10:00,1728E-3,5C000400,-0724,0833,12151,021.6,045.3,0.235,761.7,01.16,0.508
2017-04-10 02:11:00,1813E-3,5C000400,-0724,0834,12081,021.6,045.3,0.235,761.7,01.16,0.508
2017-04-10 02:12:00,1625E-3,5C000400,-0724,0834,12153,021.7,045.3,0.235,761.7,01.16,0.508
2017-04-10 02:13:00,1666E-3,5C000400,-0724,0834,12157,021.7,045.3,0.235,761.7,01.16,0.508
2017-04-10 02:14:00,1599E-3,5C000400,-0724,0834,12172,021.7,045.3,0.235,761.7,01.16,0.508
2017-04-10 02:15:00,1684E-3,5C000400,-0724,0833,12189,021.8,045.3,0.235,761.7,01.16,0.508
2017-04-10 02:16:00,1590E-3,5C000400,-0724,0834,12191,021.8,045.3,0.235,761.6,01.16,0.508
2017-04-10 02:17:00,1651E-3,5C000400,-0724,0833,12069,021.8,045.3,0.235,761.6,01.16,0.508
2017-04-10 02:18:00,1750E-3,5C000400,-0724,0834,12206,021.8,045.3,0.235,761.6,01.16,0.508
2017-04-10 02:19:00,1778E-3,5C000400,-0724,0834,12041,021.9,045.3,0.235,761.6,01.16,0.508
2017-04-10 02:20:00,1613E-3,5C000400,-0724,0834,11989,021.9,045.3,0.234,761.6,01.16,0.508
2017-04-10 02:21:00,1675E-3,5C000400,-0724,0833,12029,021.9,045.3,0.234,761.6,01.16,0.508
2017-04-10 02:22:00,1638E-3,5C000400,-0724,0834,12123,022.0,045.3,0.234,761.6,01.16,0.508
2017-04-10 02:23:00,1640E-3,5C000400,-0724,0834,12080,022.0,045.3,0.234,761.5,01.16,0.508
2017-04-10 02:24:00,1740E-3,5C000400,-0724,0834,12029,022.0,045.3,0.234,761.6,01.16,0.508
2017-04-10 02:25:00,1665E-3,5C000400,-0724,0834,11866,022.0,045.3,0.234,761.5,01.16,0.508
2017-04-10 02:26:00,1499E-3,5C000400,-0724,0834,11995,022.1,045.3,0.234,761.5,01.16,0.508
2017-04-10 02:27:00,1605E-3,5C000400,-0724,0834,12016,022.1,045.3,0.234,761.5,01.16,0.508
2017-04-10 02:28:00,1679E-3,5C000400,-0724,0834,12088,022.1,045.3,0.234,761.5,01.16,0.508
2017-04-10 02:29:00,1694E-3,5C000400,-0724,0834,12042,022.2,045.3,0.234,761.5,01.16,0.508
2017-04-10 02:30:00,1682E-3,5C000400,-0724,0835,12144,022.2,045.3,0.234,761.5,01.16,0.508
2017-04-10 02:31:00,1645E-3,5C000400,-0724,0835,12065,022.2,045.3,0.234,761.5,01.16,0.508
2017-04-10 02:32:00,1620E-3,5C000400,-0724,0834,12109,022.2,045.3,0.234,761.4,01.16,0.508
2017-04-10 02:33:00,1673E-3,5C000400,-0724,0833,12112,022.2,045.3,0.234,761.4,01.16,0.508
2017-04-10 02:34:00,1697E-3,5C000400,-0724,0834,12085,022.3,045.3,0.234,761.5,01.16,0.508
2017-04-10 02:35:00,1770E-3,5C000400,-0724,0834,12203,022.3,045.3,0.234,761.5,01.16,0.508
2017-04-10 02:36:00,1677E-3,5C000400,-0724,0834,11960,022.3,045.3,0.234,761.5,01.16,0.508
2017-04-10 02:37:00,1587E-3,5C000400,-0724,0834,12030,022.3,045.3,0.234,761.4,01.16,0.508
2017-04-10 02:38:00,1584E-3,5C000400,-0724,0834,12176,022.4,045.3,0.234,761.4,01.16,0.508
2017-04-10 02:39:00,1708E-3,5C000400,-0724,0834,12073,022.4,045.3,0.234,761.5,01.16,0.508
2017-04-10 02:40:00,1814E-3,5C000400,-0724,0835,12078,022.4,045.3,0.234,761.5,01.16,0.508
2017-04-10 02:41:00,1683E-3,5C000400,-0724,0834,11932,022.4,045.3,0.233,761.5,01.16,0.508
2017-04-10 02:42:00,1709E-3,5C000400,-0724,0834,12072,022.4,045.3,0.233,761.4,01.16,0.508
2017-04-10 02:43:00,1608E-3,5C000400,-0724,0834,12088,022.4,045.3,0.233,761.5,01.16,0.508
2017-04-10 02:44:00,1625E-3,5C000400,-0724,0834,12016,022.5,045.3,0.233,761.5,01.16,0.508
2017-04-10 02:45:00,1774E-3,5C000400,-0724,0833,12190,022.5,045.3,0.233,761.5,01.16,0.508
2017-04-10 02:46:00,1741E-3,5C000400,-0724,0834,12161,022.5,045.3,0.234,761.5,01.16,0.508
2017-04-10 02:47:00,1620E-3,5C000400,-0724,0833,12025,022.5,045.3,0.233,761.5,01.16,0.508
2017-04-10 02:48:00,1737E-3,5C000400,-0724,0834,12102,022.5,045.3,0.233,761.5,01.16,0.508
2017-04-10 02:49:00,1537E-3,5C000400,-0724,0834,12153,022.6,045.3,0.233,761.5,01.16,0.508
2017-04-10 02:50:00,1639E-3,5C000400,-0724,0834,12197,022.6,045.3,0.233,761.5,01.16,0.508
2017-04-10 02:51:00,1540E-3,5C000400,-0724,0833,12090,022.6,045.3,0.233,761.5,01.16,0.508
2017-04-10 02:52:00,1676E-3,5C000400,-0724,0833,12116,022.6,045.3,0.233,761.5,01.16,0.508
2017-04-10 02:53:00,1683E-3,5C000400,-0724,0834,12046,022.6,045.3,0.233,761.6,01.16,0.508
2017-04-10 02:54:00,1796E-3,5C000400,-0724,0833,12087,022.7,045.3,0.233,761.7,01.16,0.508
2017-04-10 02:55:00,1629E-3,5C000400,-0724,0833,12150,022.7,045.3,0.233,761.6,01.16,0.508
2017-04-10 02:56:00,1744E-3,5C000400,-0724,0834,12126,022.7,045.3,0.233,761.6,01.16,0.508
2017-04-10 02:57:00,1649E-3,5C000400,-0724,0833,12159,022.7,045.3,0.233,761.6,01.16,0.508
2017-04-10 02:58:00,1792E-3,5C000400,-0724,0834,12149,022.7,045.3,0.233,761.6,01.16,0.508
2017-04-10 02:59:00,1656E-3,5C000400,-0724,0834,12087,022.7,045.3,0.233,761.7,01.16,0.508
2017-04-10 03:00:00,1736E-3,5C000400,-0724,0834,12065,022.7,045.3,0.233,761.7,01.16,0.508
2017-04-10 03:01:00,1767E-3,5C000400,-0724,0833,12193,022.7,045.3,0.233,761.6,01.16,0.508
2017-04-10 03:02:00,1690E-3,5C000400,-0724,0833,12241,022.7,045.3,0.233,761.6,01.16,0.508
2017-04-10 03:03:00,1735E-3,5C000400,-0724,0834,12071,022.7,045.3,0.233,761.6,01.16,0.508
2017-04-10 03:04:00,1686E-3,5C000400,-0724,0833,12074,022.7,045.3,0.233,761.6,01.16,0.508
2017-04-10 03:05:00,1716E-3,5C000400,-0724,0834,12021,022.7,045.3,0.233,761.6,01.16,0.508
2017-04-10 03:06:00,1752E-3,5C000400,-0724,0834,12094,022.7,045.3,0.232,761.6,01.16,0.508
2017-04-10 03:07:00,1660E-3,5C000400,-0724,0834,12173,022.7,045.3,0.233,761.5,01.16,0.508
2017-04-10 03:08:00,1683E-3,5C000400,-0724,0835,11950,022.7,045.3,0.233,761.5,01.16,0.508
2017-04-10 03:09:00,1789E-3,5C000400,-0724,0834,12212,022.7,045.3,0.233,761.4,01.16,0.508
2017-04-10 03:10:00,1596E-3,5C000400,-0724,0834,12130,022.7,045.3,0.232,761.5,01.16,0.508
2017-04-10 03:11:00,1610E-3,5C000400,-0724,0834,12105,022.7,045.3,0.233,761.5,01.16,0.508
2017-04-10 03:12:00,1673E-3,5C000400,-0724,0833,12161,022.6,045.3,0.233,761.4,01.16,0.508
2017-04-10 03:13:00,1654E-3,5C000400,-0724,0833,12167,022.6,045.3,0.232,761.5,01.16,0.508
2017-04-10 03:14:00,1692E-3,5C000400,-0724,0833,12198,022.6,045.3,0.233,761.5,01.16,0.508
2017-04-10 03:15:00,1698E-3,5C000400,-0724,0834,11930,022.6,045.3,0.233,761.4,01.16,0.508
2017-04-10 03:16:00,1645E-3,5C000400,-0724,0834,11899,022.6,045.3,0.233,761.4,01.16,0.508
2017-04-10 03:17:00,1547E-3,5C000400,-0724,0834,12207,022.6,045.3,0.232,761.4,01.16,0.508
2017-04-10 03:18:00,1731E-3,5C000400,-0724,0833,12111,022.6,045.3,0.233,761.4,01.16,0.508
2017-04-10 03:19:00,1709E-3,5C000400,-0724,0834,12128,022.5,045.3,0.233,761.5,01.16,0.508
2017-04-10 03:20:00,1546E-3,5C000400,-0724,0834,12161,022.5,045.3,0.232,761.5,01.16,0.508
2017-04-10 03:21:00,1730E-3,5C000400,-0724,0833,11920,022.5,045.3,0.233,761.5,01.16,0.508
2017-04-10 03:22:00,1742E-3,5C000400,-0724,0834,12187,022.5,045.3,0.233,761.5,01.16,0.508
2017-04-10 03:23:00,1798E-3,5C000400,-0724,0834,12071,022.4,045.3,0.233,761.5,01.16,0.508
2017-04-10 03:24:00,1591E-3,5C000400,-0724,0833,12170,022.4,045.3,0.233,761.4,01.16,0.508
2017-04-10 03:25:00,1502E-3,5C000400,-0724,0834,12070,022.4,045.3,0.233,761.4,01.16,0.508
2017-04-10 03:26:00,1718E-3,5C000400,-0724,0834,12233,022.4,045.3,0.233,761.5,01.16,0.508
2017-04-10 03:27:00,1603E-3,5C000400,-0724,0834,12009,022.4,045.3,0.233,761.5,01.16,0.508
2017-04-10 03:28:00,1716E-3,5C000400,-0724,0833,12071,022.3,045.3,0.233,761.5,01.16,0.508
2017-04-10 03:29:00,1635E-3,5C000400,-0724,0834,12130,022.3,045.3,0.233,761.5,01.16,0.508
2017-04-10 03:30:00,1728E-3,5C000400,-0724,0834,11863,022.3,045.3,0.233,761.5,01.16,0.508
2017-04-10 03:31:00,1583E-3,5C000400,-0724,0834,12208,022.2,045.3,0.233,761.5,01.16,0.508
2017-04-10 03:32:00,1642E-3,5C000400,-0724,0834,12120,022.2,045.3,0.233,761.5,01.16,0.508
2017-04-10 03:33:00,1667E-3,5C000400,-0724,0833,11914,022.2,045.3,0.233,761.5,01.16,0.508
2017-04-10 03:34:00,1729E-3,5C000400,-0724,0833,12146,022.1,045.3,0.233,761.5,01.16,0.508
2017-04-10 03:35:00,1675E-3,5C000400,-0724,0834,11977,022.1,045.3,0.233,761.5,01.16,0.508
2017-04-10 03:36:00,1670E-3,5C000400,-0724,0834,12039,022.1,045.3,0.233,761.5,01.16,0.508
2017-04-10 03:37:00,1618E-3,5C000400,-0724,0834,12146,022.1,045.3,0.234,761.5,01.16,0.508
2017-04-10 03:38:00,1491E-3,5C000400,-0724,0833,12125,022.0,045.3,0.234,761.4,01.16,0.508
2017-04-10 03:39:00,1646E-3,5C000400,-0724,0833,12126,022.0,045.3,0.233,761.4,01.16,0.508
2017-04-10 03:40:00,1706E-3,5C000400,-0724,0833,12027,022.0,045.3,0.234,761.4,01.16,0.508
2017-04-10 03:41:00,1665E-3,5C000400,-0724,0834,12143,022.0,045.3,0.234,761.3,01.16,0.508
2017-04-10 03:42:00,1555E-3,5C000400,-0724,0834,11965,021.9,045.3,0.234,761.3,01.16,0.508
2017-04-10 03:43:00,1585E-3,5C000400,-0724,0834,12132,021.9,045.3,0.234,761.4,01.16,0.508
2017-04-10 03:44:00,1626E-3,5C000400,-0724,0833,12131,021.9,045.3,0.234,761.4,01.16,0.508
2017-04-10 03:45:00,1659E-3,5C000400,-0724,0833,12022,021.8,045.3,0.234,761.3,01.16,0.508
2017-04-10 03:46:00,1562E-3,5C000400,-0724,0834,12176,021.8,045.3,0.234,761.5,01.16,0.508
2017-04-10 03:47:00,1614E-3,5C000400,-0724,0834,12109,021.8,045.3,0.234,761.4,01.16,0.508
2017-04-10 03:48:00,1643E-3,5C000400,-0724,0833,12192,021.7,045.3,0.234,761.5,01.16,0.508
2017-04-10 03:49:00,1574E-3,5C000400,-0724,0833,12028,021.7,045.3,0.234,761.5,01.16,0.508
2017-04-10 03:50:00,1647E-3,5C000400,-0724,0834,12185,021.7,045.3,0.234,761.5,01.16,0.508
2017-04-10 03:51:00,1614E-3,5C000400,-0724,0833,12230,021.6,045.3,0.235,761.6,01.16,0.508
2017-04-10 03:52:00,1670E-3,5C000400,-0724,0833,12082,021.6,045.3,0.234,761.5,01.16,0.508
2017-04-10 03:53:00,1670E-3,5C000400,-0724,0833,11975,021.6,045.3,0.234,761.5,01.16,0.508
2017-04-10 03:54:00,1649E-3,5C000400,-0724,0834,12137,021.5,045.3,0.234,761.5,01.16,0.508
2017-04-10 03:55:00,1730E-3,5C000400,-0724,0833,12097,021.5,045.3,0.235,761.6,01.16,0.508
2017-04-10 03:56:00,1686E-3,5C000400,-0724,0834,12087,021.5,045.3,0.235,761.5,01.16,0.508
2017-04-10 03:57:00,1566E-3,5C000400,-0724,0833,12100,021.4,045.3,0.235,761.5,01.16,0.508
2017-04-10 03:58:00,1644E-3,5C000400,-0724,0833,12117,021.4,045.3,0.235,761.6,01.16,0.508
2017-04-10 03:59:00,1552E-3,5C000400,-0724,0833,12078,021.4,045.3,0.235,761.6,01.16,0.508
2017-04-10 04:00:00,1631E-3,5C000400,-0724,0833,12069,021.4,045.3,0.235,761.7,01.16,0.508
2017-04-10 04:01:00,1678E-3,5C000400,-0724,0834,12138,021.4,045.2,0.235,761.8,01.16,0.508
2017-04-10 04:02:00,1779E-3,5C000400,-0724,0833,12129,021.3,045.3,0.235,761.8,01.16,0.508
2017-04-10 04:03:00,1598E-3,5C000400,-0724,0834,11979,021.3,045.3,0.235,761.8,01.16,0.508
2017-04-10 04:04:00,1677E-3,5C000400,-0724,0833,12052,021.3,045.3,0.235,761.8,01.16,0.508
2017-04-10 04:05:00,1741E-3,5C000400,-0724,0834,12049,021.3,045.3,0.235,761.8,01.16,0.508
2017-04-10 04:06:00,1523E-3,5C000400,-0724,0834,12102,021.3,045.3,0.235,762.0,01.16,0.508
2017-04-10 04:07:00,1551E-3,5C000400,-0724,0834,12074,021.3,045.3,0.235,762.0,01.16,0.508
2017-04-10 04:08:00,1643E-3,5C000400,-0724,0834,12146,021.3,045.3,0.235,762.1,01.16,0.508
2017-04-10 04:09:00,1577E-3,5C000400,-0724,0834,12003,021.3,045.3,0.235,762.2,01.16,0.508
2017-04-10 04:10:00,1657E-3,5C000400,-0724,0834,12141,021.3,045.3,0.235,762.2,01.16,0.508
2017-04-10 04:11:00,1582E-3,5C000400,-0724,0833,12036,021.3,045.3,0.235,762.2,01.16,0.508
2017-04-10 04:12:00,1670E-3,5C000400,-0724,0834,11855,021.3,045.2,0.235,762.2,01.16,0.508
2017-04-10 04:13:00,1711E-3,5C000400,-0724,0833,12051,021.3,045.3,0.235,762.2,01.16,0.508
2017-04-10 04:14:00,1705E-3,5C000400,-0724,0833,12176,021.4,045.3,0.235,762.2,01.16,0.508
2017-04-10 04:15:00,1682E-3,5C000400,-0724,0834,12137,021.4,045.3,0.235,762.2,01.16,0.508
2017-04-10 04:16:00,1714E-3,5C000400,-0724,0833,12101,021.4,045.2,0.235,762.2,01.16,0.508
2017-04-10 04:17:00,1695E-3,5C000400,-0724,0833,12061,021.4,045.3,0.235,762.2,01.16,0.508
2017-04-10 04:18:00,1611E-3,5C000400,-0724,0833,12017,021.5,045.3,0.235,762.2,01.16,0.508
2017-04-10 04:19:00,1725E-3,5C000400,-0724,0833,12044,021.5,045.3,0.236,762.2,01.16,0.508
2017-04-10 04:20:00,1657E-3,5C000400,-0724,0833,11988,021.5,045.3,0.235,762.2,01.16,0.508